{"data":{"norad_id":68553,"intl_designator":"2026-070M","name":"STARLINK-37254","alt_names":[],"object_type":"PAYLOAD","status":"ACTIVE","operator":null,"country":"US","launch_date":"2026-04-02","launch_site_code":"AFETR","launch_vehicle":null,"mission":null,"orbit_class":"UNKNOWN","rcs_meters":null,"size_class":null,"mass_kg":null,"dimensions":null,"purposes":["comms"],"wikipedia_slug":null,"has_3d_model":false,"image_url":null,"decayed_at":null,"tle_current":{"epoch":"2026-05-25T01:19:06.449664Z","epoch_age_seconds":64215,"freshness":"FRESH","line1":"1 68553U 26070M   26145.05493576  .00023383  00000+0  70085-3 0  9990","line2":"2 68553  53.1595   7.3762 0001071  68.5586 291.5531 15.34407922  8257","mean_motion":15.34407922,"eccentricity":0.0001071,"inclination_deg":53.1595,"raan_deg":7.3762,"arg_perigee_deg":68.5586,"mean_anomaly_deg":291.5531,"bstar":0.00070085,"rev_number":825,"period_min":93.847273554418,"perigee_km":461.94704298695,"apogee_km":463.4123459229,"semimajor_km":6840.8166944549,"source":"CELESTRAK","updated_at":"2026-05-25T13:38:21.961860Z"}}}